Regional Weather Roundup
Issued by NWS

Home | Current Version | Previous Version | Graphics & Text | Print | Product List | Glossary On
Versions: 1 2 3 4 5 6 7 8 9 10 11 12 13 14 15 16 17 18 19 20 21 22 23 24 25 26 27 28 29 30 31 32 33 34 35 36 37 38 39 40 41 42 43 44 45 46 47 48 49 50
000
ASUS43 KBIS 020402
RWRND

NORTH DAKOTA REGIONAL WEATHER ROUNDUP
NATIONAL WEATHER SERVICE BISMARCK ND
1100 PM CDT WED JUL 01 2015

NOTE: "FAIR" INDICATES FEW OR NO CLOUDS BELOW 12,000 FEET WITH NO
SIGNIFICANT WEATHER AND/OR OBSTRUCTIONS TO VISIBILITY.


NDZ001>003-009>011-017-020500-
NORTHWEST NORTH DAKOTA

CITY           SKY/WX    TMP DP  RH WIND       PRES   REMARKS
WILLISTON      CLOUDY    71  59  65 NW8       30.00R HAZE
MINOT          CLOUDY    68  64  87 CALM      29.96R
MINOT AFB      MOCLDY    66  66 100 CALM      29.95S
$$

NDZ018>021-031>035-040>046-020500-
SOUTHWEST NORTH DAKOTA

CITY           SKY/WX    TMP DP  RH WIND       PRES   REMARKS
BISMARCK       MOCLDY    69  65  86 N3        29.97R
DICKINSON      LGT RAIN  66  62  87 W5        30.00R FOG
GARRISON         N/A     69  66  90 CALM      29.96R
HETTINGER ARPT CLOUDY    65  61  87 CALM      30.01F
$$

NDZ004>008-012>016-024-026-027-054-020500-
NORTHEAST NORTH DAKOTA

CITY           SKY/WX    TMP DP  RH WIND       PRES   REMARKS
GRAND FORKS    PTCLDY    66  62  87 S7        29.95R
GRND FRKS AFB  PTCLDY    65  62  89 S6        29.95S
DEVILS LAKE    PTCLDY    70  61  73 S8        29.94R
$$

NDZ022-023-025-028>030-036>039-047>053-020500-
SOUTHEAST NORTH DAKOTA

CITY           SKY/WX    TMP DP  RH WIND       PRES   REMARKS
FARGO          FAIR      65  56  72 S8        29.98R
JAMESTOWN      PTCLDY    67  62  84 SE8       29.96R
$$



USA.gov is the U.S. government's official web portal to all federal, state and local government web resources and services.